Regional Weather Roundup
Issued by NWS Albany, NY

Home | Current Version | Previous Version | Graphics & Text | Print | Product List | Glossary Off
Versions: 1 2 3 4 5 6 7 8 9 10 11 12 13 14 15 16 17 18 19 20 21 22 23 24 25 26 27 28 29 30 31 32 33 34 35 36 37 38 39 40 41 42 43 44 45 46 47 48 49 50

518
ASUS41 KALY 031010
RWRALY

NEW YORK STATE HOURLY WEATHER ROUNDUP
NATIONAL WEATHER SERVICE ALBANY NY
600 AM EDT TUE MAY 03 2016

NOTE: "FAIR" INDICATES FEW OR NO CLOUDS BELOW 12,000 FEET WITH NO
SIGNIFICANT WEATHER AND/OR NO OBSTRUCTIONS TO VISIBILITY.

NYZ032-033-038>043-046>054-057>066-NYZ062>081-082-084-031100-
EAST


CITY           SKY/WX    TMP DP  RH WIND       PRES   REMARKS
ALBANY         CLOUDY    46  42  86 N5        29.91S
GLENS FALLS    CLOUDY    45  42  89 N5        29.92S
POUGHKEEPSIE   CLOUDY    51  47  86 NE5       29.87F
NEWBURGH       DRIZZLE   50  50 100 NE12      29.88F FOG
MONTGOMERY     LGT RAIN  50  49  96 NE3       29.87S
WHITE PLAINS   LGT RAIN  51  49  92 E3        29.87R FOG
NEW YORK CITY  RAIN      53  51  93 E5        29.88R FOG
CENTRAL PARK   RAIN      51  50  96 E5        29.89S FOG
$$

NYZ005>009-017-018-044>046-055-056-031100-
CENTRAL


CITY           SKY/WX    TMP DP  RH WIND       PRES   REMARKS
FULTON         CLOUDY    43  41  93 CALM      29.93F FOG
SYRACUSE       FOG       40  40 100 NW6       29.92S VSB 1/8
ROME           FOG       39  39 100 CALM      29.92F VSB 1/4
ELMIRA         CLOUDY    45  41  86 E5        29.89F
BINGHAMTON     CLOUDY    41  40  96 N7        29.87S
MONTICELLO     CLOUDY    45  45 100 CALM      29.87S
$$

NYZ026>034-041>043-087-031100-
NORTH


CITY           SKY/WX    TMP DP  RH WIND       PRES   REMARKS
WATERTOWN      CLOUDY    39  38  96 E3        29.95S FOG
FORT DRUM      NOT AVBL
MASSENA        FOG       32  30  92 CALM      29.97S VSB<1/4
SARANAC LAKE   PTCLDY    35  33  92 CALM      29.90S FOG
PLATTSBURGH    NOT AVBL
$$

NYZ001>004-010>016-019>021-085-031100-
WEST


CITY           SKY/WX    TMP DP  RH WIND       PRES   REMARKS
NIAGARA FALLS  CLEAR     38  34  85 CALM      29.92F
BUFFALO        MOCLDY    41  40  96 NE3       29.91F
DUNKIRK        CLOUDY    39  38  96 VRB3      29.91S
JAMESTOWN      CLOUDY    43  39  87 N3        29.87S
WELLSVILLE     CLOUDY    42  41  96 E3        29.88F FOG
ROCHESTER      MOCLDY    41  40  96 CALM      29.93F FOG
PENN YAN       FOG       37  36  96 CALM      29.91F VSB 1/4
$$

             KEY
       WCI = WIND CHILL INDEX
       VSB = VISIBILITY
       HX  = HEAT INDEX
$$




USA.gov is the U.S. government's official web portal to all federal, state and local government web resources and services.